Home > Weather > Wilmington > Past weeks

Flag for U.S.A. Weather for the Past 2 Weeks in Wilmington, Delaware, U.S.A.

Now
32 °F

Snow. Fog.


Feels Like: 29 °F
Forecast: 32 / 39 °F
Wind: 3 mph from Northwest

Location: New Castle County Airport

Current Time: Feb 9, 2016 at 6:01:07 PM

Latest Report: Feb 9, 2016 at 4:51 PM


Visibility: 0 mi

Pressure: 29.58 "Hg

Humidity: 96%

Dew point: 31 °F

Location of WilmingtonLocation

Historic Weather in Wilmington — Graph

°F

Wilmington Temperature Yesterday

Maximum temperature yesterday: 43 °F (at 11:51 AM)
Minimum temperature yesterday: 32 °F (at 10:51 PM)
Average temperature yesterday: 38 °F

High & Low Weather Summary for the Past Weeks

 TemperatureHumidityPressure
High56 °F (Feb 1, 12:51 PM)100% (Feb 3, 3:51 PM)30.47 "Hg (Feb 3, 3:51 PM)
Low18 °F (Jan 28, 6:51 AM)39% (Feb 2, 3:51 PM)29.53 "Hg (Jan 29, 4:51 AM)
Average38 °F71%30.01 "Hg
* Reported Jan 25 3:51 PM — Feb 9 3:51 PM, Wilmington, Weather by CustomWeather, © 2016

Note: Actual official high and low records may vary slightly from our data, if they occured in-between our weather recording intervals... More about our weather records

Advertising

Wilmington Weather History for the Previous 24 Hours

 ConditionsComfort  
Time TempWeatherWind HumidityBarometerVisibility
3:51 PM
Tue, Feb 9
33 °FSnow. Fog.7 mph96%29.56 "Hg1 mi
2:51 PM35 °FLight rain. Fog.9 mph88%29.54 "Hg5 mi
1:51 PM34 °FLight snow. Fog.9 mph92%29.54 "Hg4 mi
12:55 PM34 °FLight snow. Fog.9 mph92%29.56 "Hg1 mi
11:51 AM34 °FLight snow. Fog.10 mph85%29.58 "Hg2 mi
10:51 AM34 °FLow clouds.12 mph85%29.60 "Hg7 mi
9:51 AM33 °FLight snow. Fog.13 mph88%29.61 "Hg2 mi
8:51 AM32 °FLight snow. Ice fog.12 mph92%29.62 "Hg1 mi
7:57 AM32 °FLight snow. Ice fog.10 mph92%29.62 "Hg1 mi
6:59 AM32 °FLight snow. Ice fog.12 mph88%29.63 "Hg2 mi
5:51 AM32 °FLow clouds.13 mph88%29.63 "Hg10 mi
4:51 AM32 °FLow clouds.9 mph88%29.62 "Hg10 mi
3:51 AM32 °FLow clouds.10 mph88%29.62 "Hg10 mi
2:51 AM32 °FLow clouds.12 mph88%29.65 "Hg10 mi
1:51 AM32 °FLow clouds.10 mph88%29.67 "Hg9 mi
12:51 AM32 °FLight snow. Ice fog.10 mph92%29.69 "Hg2 mi
11:51 PM
Mon, Feb 8
32 °FLight snow. Ice fog.7 mph92%29.72 "Hg3 mi
10:51 PM32 °FLight snow. Ice fog.9 mph92%29.73 "Hg2 mi
10:01 PM33 °FLight snow. Fog.9 mph92%29.75 "Hg2 mi
8:51 PM34 °FLight snow. Fog.12 mph88%29.75 "Hg3 mi
7:51 PM39 °FLight rain. Mostly cloudy.10 mph65%29.75 "Hg8 mi
6:51 PM40 °FMostly cloudy.5 mph63%29.75 "Hg10 mi
Weather by CustomWeather, © 2016

See weather overviewHow to use our weather pages